Miscellaneous Local Product
Issued by NWS North Platte, NE

Home | Current Version | Previous Version | Text Only | Print | Product List | Glossary On
Versions: 1 2 3 4 5 6 7 8 9 10 11 12 13 14 15 16 17 18 19 20 21 22 23 24 25 26 27 28 29 30 31 32 33 34 35 36 37 38 39 40 41 42 43 44 45 46 47 48 49 50
579
AXUS43 KLBF 250710
MISLBF


WESTERN AND NORTH CENTRAL NEBRASKA HOURLY WEATHER ROUNDUP
NATIONAL WEATHER SERVICE NORTH PLATTE NE
200 AM CDT SUN SEP 25 2016

NOTE: "FAIR" INDICATES FEW OR NO CLOUDS BELOW 12,000 FEET WITH NO
SIGNIFICANT WEATHER AND/OR OBSTRUCTIONS TO VISIBILITY.

NOTE: STATIONS NOT REPORTING VARIABLES SUCH AS SKY/WEATHER OR
PRESSURE ARE PROVIDED BY RAWS AND APRS NETWORKS AND ARE NOT UNDER
NATIONAL WEATHER SERVICE QUALITY CONTROL.

...OBSERVATIONS IN AND NEAR THE EASTERN PANHANDLE OF NEBRASKA...

CITY           SKY/WX    TMP DP  RH WIND       PRES   REMARKS
PINE RIDGE     CLOUDY    51  43  74 W18G31    30.15R
CHADRON        CLOUDY    52  42  69 W18       30.20S
ALLIANCE       CLEAR     47  40  76 W10       30.21R
SIDNEY         CLOUDY    49  40  71 NW12      30.26R
CRESCENT LAKE    N/A     50  39  66 NW14G22     N/A
$$

...OBSERVATIONS IN NORTHERN NEBRASKA AND FAR SOUTHERN SOUTH DAKOTA...

CITY           SKY/WX    TMP DP  RH WIND       PRES   REMARKS
WINNER         FAIR      56  42  59 W15       30.02R
VALENTINE      CLEAR     53  40  61 W16       30.09R
THEDFORD       CLEAR     55  43  64 W17G23    30.14R
AINSWORTH      CLEAR     54  43  66 W14G23    30.09R
O`NEILL        CLEAR     57  41  56 W14G20    30.04S
ORD            CLEAR     57  40  52 NW17      30.06R
BROKEN BOW     CLEAR     56  41  57 NW16G26   30.10R
VALENTINE NWR    N/A     53  40  61 W15G26      N/A
BUTTE            N/A     54  42  65 W8G21       N/A
HALSEY           N/A     55  40  57 W10G22      N/A
EWING            N/A     56  46  69 W8          N/A
$$

...OBSERVATIONS IN SOUTHWEST NEBRASKA AND FAR NORTHEAST COLORADO...

CITY           SKY/WX    TMP DP  RH WIND       PRES   REMARKS
WRAY           FAIR      48  37  66 W7        30.24
HOLYOKE        FAIR      54  41  62 NW10      30.24R
IMPERIAL       CLEAR     53  40  61 NW12      30.20R
OGALLALA       CLEAR     50  43  76 W6        30.21R
NORTH PLATTE   PTCLDY    51  43  74 NW8       30.16R
MCCOOK         CLEAR     54  42  64 NW7       30.15R
LEXINGTON      CLEAR     55  42  62 NW12      30.13R
STAPLETON        N/A     52  42  70 CALM        N/A
GOTHENBURG       N/A     55  40  56 NW6         N/A
CALLAWAY         N/A     53  43  68 NW10        N/A
$$

...OBSERVATIONS IN CENTRAL LINCOLN COUNTY AREA...

CITY           SKY/WX    TMP DP  RH WIND       PRES   REMARKS
N.P. AIRPORT   PTCLDY    51  43  74 NW8       30.16R
N.P. DOWNTOWN    N/A     54  44  67 W3G12       N/A
N.P. SOUTHEAST   N/A     54  42  65 CALM        N/A
N.P. HILLCREST   N/A     53  43  70 NW9         N/A
$$

...SOME OBSERVATIONS FROM AROUND THE REGION...

CITY           SKY/WX    TMP DP  RH WIND       PRES   REMARKS
DENVER         CLOUDY    46  32  58 CALM      30.33R
LARAMIE        CLEAR     37  32  82 W10       30.38R WCI  30
CHEYENNE       PTCLDY    44  34  67 W10       30.33R
SCOTTSBLUFF    CLEAR     44  40  85 W10       30.24F
RAPID CITY     CLOUDY    53  40  61 NW36G49   30.09R
BISMARCK       CLOUDY    52  47  83 W5        29.76F
PIERRE         CLOUDY    57  47  69 W21G35    29.91S
SIOUX FALLS    CLOUDY    61  50  67 W10       29.94R
OMAHA          RAIN      69  66  90 SE8       29.97R
GRAND ISLAND   PTCLDY    56  46  69 NW12      30.07R
KANSAS CITY    RAIN      68  66  93 SW5       30.03R
WICHITA        LGT RAIN  68  66  93 NW3       30.02S FOG
OKLAHOMA CITY  TSTM      70  69  97 S6        30.00S
DALLAS         MOCLDY    77  71  82 S7        29.96F
AMARILLO       FOG       61  60  97 SE9       30.07R VSB 1/4
DODGE CITY     FOG       59  58  96 CALM      30.07S VSB 1/4
HAYS           CLOUDY    63  54  72 W5        30.05R VSB<1/4
GOODLAND       CLEAR     50  42  74 NW9       30.21R
$$




USA.gov is the U.S. government's official web portal to all federal, state and local government web resources and services.